Location: San Antonio
(29.4240°N, 98.4930°W)
Time: 17:45:10
(UTC-05:00)

ZACube-1 - Pass Details

Date: 10 August 2024
Orbit: 562 x 628 km, 97.7° (Epoch: 14 September)

Event Time Altitude Azimuth Distance (km) Brightness Sun altitude
Rises 05:06:01 0° 355° (N) 2,914 ? -23.0°
Reaches altitude 10° 05:08:31 10° 342° (NNW) 2,010 ? -22.6°
Enters shadow 05:10:55 22° 312° (NW) 1,387 ? -22.1°
